• In Belgien
  • Länderverzeichnis
  • Für 7 Tage
  • Wassertemperatur
  • Satellitenkarten
  • Wetterkarte
  • Widgets
  • user-avatar
    Anmelden

    Stündliche Wetter Rudzie

    Heute, 16 Oktober, Dienstag

    Zeit Temperatur Niederschläge Wind Luftdruck Luftfeuchtigkeit
    00:00 +9°C° 0 mm 3 m/S 744 mmHg 70%
    01:00 +9°C° 0 mm 3 m/S 744 mmHg 71%
    02:00 +8°C° 0 mm 3 m/S 744 mmHg 73%
    03:00 +8°C° 0 mm 3 m/S 744 mmHg 74%
    04:00 +8°C° 0 mm 3 m/S 744 mmHg 75%
    05:00 +8°C° 0 mm 3 m/S 744 mmHg 75%
    06:00 +8°C° 0 mm 3 m/S 744 mmHg 75%
    07:00 +8°C° 0 mm 3 m/S 744 mmHg 74%
    08:00 +10°C° 0 mm 3 m/S 744 mmHg 68%
    09:00 +12°C° 0 mm 3 m/S 744 mmHg 61%
    10:00 +14°C° 0 mm 3 m/S 745 mmHg 55%
    11:00 +16°C° 0 mm 3 m/S 745 mmHg 51%
    12:00 +17°C° 0 mm 3 m/S 744 mmHg 48%
    13:00 +19°C° 0 mm 3 m/S 744 mmHg 45%
    14:00 +18°C° 0 mm 2 m/S 744 mmHg 49%
    15:00 +16°C° 0 mm 2 m/S 744 mmHg 53%
    16:00 +15°C° 0 mm 2 m/S 744 mmHg 57%
    17:00 +14°C° 0 mm 2 m/S 744 mmHg 60%
    18:00 +13°C° 0 mm 2 m/S 744 mmHg 63%
    19:00 +12°C° 0 mm 2 m/S 744 mmHg 66%
    20:00 +12°C° 0 mm 2 m/S 744 mmHg 67%
    21:00 +10°C° 0 mm 2 m/S 744 mmHg 68%
    22:00 +10°C° 0 mm 2 m/S 744 mmHg 69%
    23:00 +9°C° 0 mm 2 m/S 744 mmHg 70%

    Morgen, 17 Oktober, Mittwoch

    Zeit Temperatur Niederschläge Wind Luftdruck Luftfeuchtigkeit
    00:00 +9°C° 0 mm 2 m/S 744 mmHg 71%
    01:00 +9°C° 0 mm 2 m/S 745 mmHg 71%
    02:00 +8°C° 0 mm 2 m/S 744 mmHg 72%
    03:00 +8°C° 0 mm 2 m/S 744 mmHg 73%
    04:00 +8°C° 0 mm 2 m/S 744 mmHg 73%
    05:00 +8°C° 0 mm 2 m/S 744 mmHg 73%
    06:00 +8°C° 0 mm 2 m/S 744 mmHg 73%
    07:00 +8°C° 0 mm 2 m/S 745 mmHg 73%
    08:00 +10°C° 0 mm 2 m/S 745 mmHg 66%
    09:00 +13°C° 0 mm 2 m/S 745 mmHg 59%
    10:00 +15°C° 0 mm 2 m/S 745 mmHg 52%
    11:00 +16°C° 0 mm 2 m/S 745 mmHg 49%
    12:00 +18°C° 0 mm 1 m/S 745 mmHg 46%
    13:00 +19°C° 0 mm 1 m/S 745 mmHg 43%
    14:00 +18°C° 0 mm 1 m/S 745 mmHg 47%
    15:00 +16°C° 0 mm 1 m/S 744 mmHg 51%
    16:00 +15°C° 0 mm 1 m/S 744 mmHg 56%
    17:00 +14°C° 0 mm 1 m/S 744 mmHg 58%
    18:00 +13°C° 0 mm 1 m/S 744 mmHg 61%
    19:00 +12°C° 0 mm 1 m/S 744 mmHg 63%
    20:00 +12°C° 0 mm 1 m/S 745 mmHg 64%
    21:00 +11°C° 0 mm 1 m/S 745 mmHg 66%
    22:00 +11°C° 0 mm 1 m/S 745 mmHg 67%
    23:00 +11°C° 0 mm 1 m/S 744 mmHg 68%

    übermorgen, 18 Oktober, Donnerstag

    Zeit Temperatur Niederschläge Wind Luftdruck Luftfeuchtigkeit
    00:00 +10°C° 0 mm 1 m/S 744 mmHg 69%
    01:00 +10°C° 0 mm 1 m/S 744 mmHg 70%
    02:00 +10°C° 0 mm 1 m/S 744 mmHg 71%
    03:00 +9°C° 0 mm 1 m/S 744 mmHg 73%
    04:00 +9°C° 0 mm 1 m/S 744 mmHg 75%
    05:00 +9°C° 0 mm 1 m/S 744 mmHg 76%
    06:00 +9°C° 0 mm 1 m/S 744 mmHg 77%
    07:00 +9°C° 0 mm 1 m/S 743 mmHg 78%
    08:00 +11°C° 0 mm 1 m/S 743 mmHg 73%
    09:00 +13°C° 0 mm 1 m/S 743 mmHg 68%
    10:00 +15°C° 0 mm 1 m/S 743 mmHg 63%
    11:00 +16°C° 0 mm 1 m/S 743 mmHg 61%
    12:00 +18°C° 0 mm 1 m/S 743 mmHg 58%
    13:00 +19°C° 0 mm 1 m/S 743 mmHg 55%
    14:00 +18°C° 0 mm 1 m/S 743 mmHg 60%
    15:00 +15°C° 0 mm 0 m/S 742 mmHg 64%
    16:00 +14°C° 0 mm 0 m/S 742 mmHg 69%
    17:00 +13°C° 0 mm 0 m/S 742 mmHg 72%
    18:00 +12°C° 0 mm 0 m/S 742 mmHg 76%
    19:00 +11°C° 0 mm 0 m/S 742 mmHg 79%
    20:00 +11°C° 0 mm 0 m/S 742 mmHg 80%
    21:00 +11°C° 0 mm 0 m/S 742 mmHg 82%
    22:00 +10°C° 0 mm 0 m/S 742 mmHg 83%
    23:00 +10°C° 0 mm 0 m/S 742 mmHg 84%

    19 Oktober, Freitag

    Zeit Temperatur Niederschläge Wind Luftdruck Luftfeuchtigkeit
    00:00 +10°C° 0 mm 0 m/S 742 mmHg 84%
    01:00 +9°C° 0 mm 0 m/S 742 mmHg 85%
    02:00 +10°C° 0 mm 1 m/S 742 mmHg 85%
    03:00 +10°C° 0 mm 1 m/S 742 mmHg 86%
    04:00 +10°C° 0 mm 1 m/S 742 mmHg 86%
    05:00 +10°C° 0 mm 1 m/S 742 mmHg 86%
    06:00 +10°C° 0 mm 1 m/S 742 mmHg 86%
    07:00 +10°C° 0 mm 1 m/S 742 mmHg 86%
    08:00 +11°C° 0 mm 1 m/S 742 mmHg 80%
    09:00 +13°C° 0 mm 2 m/S 743 mmHg 73%
    10:00 +14°C° 0 mm 2 m/S 743 mmHg 67%
    11:00 +15°C° 0 mm 2 m/S 743 mmHg 65%
    12:00 +15°C° 0 mm 2 m/S 743 mmHg 62%
    13:00 +16°C° 0 mm 2 m/S 743 mmHg 60%
    14:00 +15°C° 0 mm 2 m/S 743 mmHg 65%
    15:00 +14°C° 0 mm 2 m/S 743 mmHg 70%
    16:00 +13°C° 0 mm 2 m/S 743 mmHg 75%
    17:00 +12°C° 0 mm 2 m/S 743 mmHg 80%
    18:00 +12°C° 0 mm 2 m/S 743 mmHg 85%
    19:00 +10°C° 0 mm 2 m/S 744 mmHg 91%
    20:00 +10°C° 0 mm 2 m/S 744 mmHg 91%
    21:00 +9°C° 0 mm 2 m/S 744 mmHg 92%
    22:00 +9°C° 0 mm 2 m/S 744 mmHg 93%
    23:00 +9°C° 0 mm 2 m/S 744 mmHg 93%

    20 Oktober, Samstag

    Zeit Temperatur Niederschläge Wind Luftdruck Luftfeuchtigkeit
    00:00 +10°C° 0 mm 1 m/S 744 mmHg 93%
    01:00 +10°C° 0 mm 1 m/S 744 mmHg 92%
    02:00 +10°C° 0 mm 1 m/S 744 mmHg 91%
    03:00 +10°C° 0 mm 1 m/S 744 mmHg 89%
    04:00 +9°C° 0 mm 1 m/S 744 mmHg 87%
    05:00 +9°C° 0 mm 1 m/S 745 mmHg 87%
    06:00 +9°C° 0 mm 1 m/S 745 mmHg 87%
    07:00 +8°C° 0 mm 1 m/S 745 mmHg 87%
    08:00 +8°C° 0 mm 2 m/S 745 mmHg 80%
    09:00 +9°C° 0 mm 2 m/S 745 mmHg 74%
    10:00 +10°C° 0 mm 3 m/S 746 mmHg 67%
    11:00 +11°C° 0 mm 3 m/S 745 mmHg 65%
    12:00 +11°C° 0 mm 4 m/S 745 mmHg 62%
    13:00 +11°C° 0 mm 4 m/S 745 mmHg 60%
    14:00 +11°C° 0 mm 4 m/S 745 mmHg 62%
    15:00 +10°C° 0 mm 4 m/S 745 mmHg 65%
    16:00 +8°C° 0 mm 4 m/S 745 mmHg 67%
    17:00 +8°C° 0 mm 4 m/S 745 mmHg 71%
    18:00 +7°C° 0 mm 4 m/S 745 mmHg 75%
    19:00 +8°C° 0 mm 3 m/S 746 mmHg 78%
    20:00 +8°C° 0 mm 3 m/S 745 mmHg 80%
    21:00 +8°C° 0 mm 3 m/S 745 mmHg 82%
    22:00 +9°C° 0 mm 3 m/S 745 mmHg 83%
    23:00 +9°C° 0 mm 3 m/S 745 mmHg 85%

    21 Oktober, Sonntag

    Zeit Temperatur Niederschläge Wind Luftdruck Luftfeuchtigkeit
    00:00 +8°C° 0 mm 3 m/S 745 mmHg 86%
    01:00 +8°C° 0 mm 3 m/S 745 mmHg 87%
    02:00 +8°C° 0 mm 3 m/S 745 mmHg 88%
    03:00 +8°C° 0 mm 3 m/S 745 mmHg 89%
    04:00 +8°C° 0 mm 3 m/S 745 mmHg 90%
    05:00 +8°C° 0 mm 3 m/S 745 mmHg 92%
    06:00 +7°C° 0 mm 3 m/S 745 mmHg 93%
    07:00 +7°C° 0 mm 3 m/S 745 mmHg 95%
    08:00 +9°C° 0 mm 3 m/S 745 mmHg 90%
    09:00 +10°C° 0 mm 4 m/S 745 mmHg 85%
    10:00 +11°C° 0 mm 4 m/S 745 mmHg 79%
    11:00 +11°C° 0 mm 4 m/S 745 mmHg 80%
    12:00 +11°C° 0 mm 4 m/S 745 mmHg 81%
    13:00 +11°C° 0 mm 4 m/S 745 mmHg 82%
    14:00 +11°C° 0 mm 4 m/S 745 mmHg 81%
    15:00 +11°C° 0 mm 4 m/S 744 mmHg 81%
    16:00 +11°C° 0 mm 4 m/S 744 mmHg 80%
    17:00 +11°C° 0 mm 4 m/S 744 mmHg 79%
    18:00 +11°C° 0 mm 4 m/S 744 mmHg 78%
    19:00 +11°C° 0 mm 4 m/S 744 mmHg 77%
    20:00 +11°C° 0 mm 4 m/S 743 mmHg 76%
    21:00 +10°C° 0 mm 4 m/S 743 mmHg 74%
    22:00 +9°C° 0 mm 5 m/S 743 mmHg 73%
    23:00 +9°C° 0 mm 5 m/S 742 mmHg 75%
    Mehr zeigen